Location: Home
(42.5358°N, 72.7383°W)
Time: 21:40:18
(UTC-05:00)

Vanguard 2 Rocket - Pass Details

Date: 30 November 2021
Orbit: 554 x 3325 km, 32.9° (Epoch: 21 January)

Event Time Altitude Azimuth Distance (km) Brightness Sun altitude
Rises 18:32:49 0° 230° (SW) 3,559 10.9 -24.1°
Reaches altitude 10° 18:35:08 10° 221° (SW) 2,868 10.1 -24.5°
Maximum altitude 18:41:39 38° 155° (SSE) 2,135 8.5 -25.7°
Enters shadow 18:44:31 32° 124° (SE) 2,603 8.8 -26.2°
Drops below altitude 10° 18:52:27 10° 95° (E) 4,777 - -27.7°
Sets 18:57:32 0° 89° (E) 6,244 - -28.6°
